Location: Arrien
(42.8963°N, 1.0429°E)
Time: 14:52:40
(UTC+00:00)

ISS - Visible Passes

Search period start: 15 February 2026 00:00
Search period end: 25 February 2026 00:00
Orbit: 413 x 428 km, 51.6° (Epoch: 14 February)

Date Brightness Start Highest point End Pass type
(mag) Time Alt. Az. Time Alt. Az. Time Alt. Az.
15 Feb -1.6 04:36:22 24° ESE 04:36:22 24° ESE 04:38:40 10° E visible
15 Feb -3.4 06:09:23 10° WSW 06:12:34 46° NNW 06:15:49 10° NE visible
16 Feb -3.8 05:24:33 44° WSW 05:25:26 71° NNW 05:28:46 10° NE visible
17 Feb -2.2 04:39:35 35° ENE 04:39:35 35° ENE 04:41:41 10° ENE visible
17 Feb -2.4 06:12:35 10° WNW 06:15:26 25° NNW 06:18:18 10° NE visible
18 Feb -2.8 05:27:30 29° NW 05:28:11 33° NNW 05:31:15 10° NE visible
19 Feb -2.0 04:42:19 28° NNE 04:42:19 28° NNE 04:44:12 10° NE visible
19 Feb -1.9 06:15:54 10° NW 06:18:23 19° N 06:20:52 10° NE visible
20 Feb -0.2 03:57:04 10° NE 03:57:04 10° NE 03:57:07 10° NE visible
20 Feb -2.1 05:30:03 19° NW 05:31:03 21° NNW 05:33:42 10° NE visible
21 Feb -1.7 04:44:44 22° NNE 04:44:44 22° NNE 04:46:34 10° NE visible
22 Feb -0.4 03:59:22 11° NE 03:59:22 11° NE 03:59:28 10° NE visible
22 Feb -1.7 05:32:21 14° NW 05:33:57 18° N 05:36:21 10° NE visible
23 Feb -1.6 04:46:57 19° N 04:46:57 19° N 04:49:02 10° NE visible
24 Feb -0.5 04:01:33 11° NE 04:01:33 11° NE 04:01:48 10° NE visible
24 Feb -1.7 05:34:31 11° NW 05:36:48 20° N 05:39:21 10° ENE visible
